User: anonymous   Login
Location: Erdweis
(48.5167°N, 15.3500°E)
Time: 04:55:42
(UTC+00:00)
Language:

SJ-6B - Orbit

View from above orbital plane
View from above orbital plane
View from above satellite
View from above satellite

Ground track
Ground track

The orbit data is extracted from the following two-line orbital elements,

1 28415U 04035C   20333.58391258 +.00000676 +00000-0 +48100-4 0  9990
2 28415 097.5941 013.1845 0052271 151.3272 209.0848 15.06962383888353
Epoch (UTC): 28 November 2020 14:00:50
Eccentricity: 0.0052271
inclination: 97.5941°
perigee height: 509 km
apogee height: 581 km
right ascension of ascending node: 13.1845°
argument of perigee: 151.3272°
revolutions per day: 15.06962383
mean anomaly at epoch: 209.0848°
orbit number at epoch: 88835

The dashed part of the orbit path shows where the satellite is in the earth's shadow,  

DLR